| time (UTC) | temp F | wind direction | speed MPH | gust MPH | rain 1hr in | rain 24hr in | rain mn in | humidity % | barometer mb |
| 20260906062004 | 64 | 327 | 1.0 | 2.0 | 0.00 | 0.00 | 0.00 | 92 | 1012.2 |
| 20260906061503 | 64 | 324 | 1.0 | 2.0 | 0.00 | 0.00 | 0.00 | 92 | 1012.1 |
| 20260906061003 | 65 | 321 | 1.0 | 2.0 | 0.00 | 0.00 | 0.00 | 92 | 1012.2 |
| 20260906060503 | 65 | 319 | 1.0 | 2.0 | 0.00 | 0.00 | 0.00 | 92 | 1012.3 |
| 20260906060003 | 65 | 319 | 0.0 | 2.0 | 0.00 | 0.00 | 0.00 | 92 | 1012.3 |
| 20260906055504 | 65 | 58 | 0.0 | 2.0 | 0.00 | 0.00 | 0.00 | 92 | 1012.4 |
| 20260906055003 | 65 | 82 | 0.0 | 2.0 | 0.00 | 0.00 | 0.00 | 92 | 1012.4 |
| 20260906054504 | 65 | 348 | 0.0 | 2.0 | 0.00 | 0.00 | 0.00 | 92 | 1012.5 |
| 20260906054003 | 65 | 345 | 0.0 | 2.0 | 0.00 | 0.00 | 0.00 | 92 | 1012.5 |
| 20260906053503 | 65 | 318 | 1.0 | 2.0 | 0.00 | 0.00 | 0.00 | 92 | 1012.6 |
| 20260906053003 | 66 | 316 | 1.0 | 2.0 | 0.00 | 0.00 | 0.00 | 92 | 1012.6 |
| 20260906052503 | 66 | 317 | 1.0 | 2.0 | 0.00 | 0.00 | 0.00 | 92 | 1012.6 |
| 20260906051503 | 66 | 320 | 0.0 | 2.0 | 0.00 | 0.00 | 0.00 | 92 | 1012.6 |
| 20260906050004 | 66 | 327 | 0.0 | 2.0 | 0.00 | 0.00 | 0.00 | 92 | 1012.6 |
| 20260906045503 | 66 | 315 | 1.0 | 2.0 | 0.00 | 0.00 | 0.00 | 92 | 1012.6 |
| 20260906045003 | 66 | 317 | 0.0 | 2.0 | 0.00 | 0.00 | 0.00 | 92 | 1012.7 |
| 20260906044504 | 67 | 328 | 0.0 | 2.0 | 0.00 | 0.00 | 0.00 | 92 | 1012.6 |
| 20260906044004 | 67 | 318 | 0.0 | 2.0 | 0.00 | 0.00 | 0.00 | 92 | 1012.7 |
| 20260906043504 | 67 | 318 | 0.0 | 2.0 | 0.00 | 0.00 | 0.00 | 92 | 1012.7 |
| 20260906043003 | 67 | 323 | 0.0 | 2.0 | 0.00 | 0.00 | 0.00 | 92 | 1012.8 |
| 20260906042003 | 67 | 337 | 0.0 | 2.0 | 0.00 | 0.00 | 0.00 | 92 | 1012.6 |
| 20260906041503 | 67 | 336 | 0.0 | 2.0 | 0.00 | 0.00 | 0.00 | 92 | 1012.6 |
| 20260906041003 | 68 | 328 | 0.0 | 2.0 | 0.00 | 0.00 | 0.00 | 92 | 1012.7 |
| 20260906040504 | 68 | 1 | 0.0 | 1.0 | 0.00 | 0.00 | 0.00 | 92 | 1012.8 |
| 20260906040003 | 68 | 311 | 0.0 | 2.0 | 0.00 | 0.00 | 0.00 | 91 | 1012.9 |
| 20260906035504 | 68 | 310 | 0.0 | 2.0 | 0.00 | 0.00 | 0.00 | 91 | 1012.8 |
| 20260906035003 | 68 | 308 | 0.0 | 2.0 | 0.00 | 0.00 | 0.00 | 91 | 1012.9 |
| 20260906034503 | 68 | 315 | 0.0 | 2.0 | 0.00 | 0.00 | 0.00 | 91 | 1013.0 |
| 20260906034005 | 68 | 67 | 0.0 | 2.0 | 0.00 | 0.00 | 0.00 | 91 | 1013.1 |
| 20260906033503 | 68 | 27 | 0.0 | 2.0 | 0.00 | 0.00 | 0.00 | 91 | 1013.1 |
| 20260906033003 | 68 | 312 | 0.0 | 2.0 | 0.00 | 0.00 | 0.00 | 91 | 1013.1 |
| 20260906032503 | 68 | 325 | 0.0 | 2.0 | 0.00 | 0.00 | 0.00 | 91 | 1013.1 |
| 20260906032004 | 69 | 67 | 0.0 | 2.0 | 0.00 | 0.00 | 0.00 | 91 | 1013.1 |
| 20260906031503 | 69 | 318 | 0.0 | 2.0 | 0.00 | 0.00 | 0.00 | 90 | 1013.1 |
| 20260906031004 | 69 | 314 | 0.0 | 2.0 | 0.00 | 0.00 | 0.00 | 90 | 1013.0 |
| 20260906025503 | 69 | 11 | 0.0 | 2.0 | 0.00 | 0.00 | 0.00 | 89 | 1012.9 |
| 20260906025003 | 70 | 8 | 0.0 | 2.0 | 0.00 | 0.00 | 0.00 | 89 | 1012.8 |
| 20260906024504 | 70 | 2 | 0.0 | 2.0 | 0.00 | 0.00 | 0.00 | 89 | 1012.9 |
| 20260906024003 | 70 | 353 | 0.0 | 2.0 | 0.00 | 0.00 | 0.00 | 89 | 1012.8 |
| 20260906023004 | 70 | 332 | 0.0 | 2.0 | 0.00 | 0.00 | 0.00 | 88 | 1012.8 |
| 20260906022503 | 70 | 58 | 0.0 | 2.0 | 0.00 | 0.00 | 0.00 | 88 | 1012.8 |
| 20260906022003 | 70 | 135 | 0.0 | 1.0 | 0.00 | 0.00 | 0.00 | 87 | 1012.7 |
| 20260906021503 | 71 | 1 | 0.0 | 2.0 | 0.00 | 0.00 | 0.00 | 87 | 1012.7 |
| 20260906021003 | 71 | 31 | 0.0 | 2.0 | 0.00 | 0.00 | 0.00 | 86 | 1012.7 |
| 20260906020503 | 71 | 79 | 0.0 | 2.0 | 0.00 | 0.00 | 0.00 | 86 | 1012.7 |
| 20260906015503 | 71 | 136 | 0.0 | 1.0 | 0.00 | 0.00 | 0.00 | 86 | 1012.6 |
| 20260906015004 | 72 | 313 | 0.0 | 2.0 | 0.00 | 0.00 | 0.00 | 85 | 1012.5 |
| 20260906014503 | 72 | 314 | 1.0 | 2.0 | 0.00 | 0.00 | 0.00 | 85 | 1012.4 |
| 20260906014003 | 72 | 317 | 1.0 | 3.0 | 0.00 | 0.00 | 0.00 | 84 | 1012.4 |
| 20260906013503 | 72 | 311 | 1.0 | 3.0 | 0.00 | 0.00 | 0.00 | 84 | 1012.3 |
| 20260906012003 | 73 | 323 | 0.0 | 2.0 | 0.00 | 0.00 | 0.00 | 83 | 1012.2 |
| 20260906011503 | 73 | 331 | 0.0 | 2.0 | 0.00 | 0.00 | 0.00 | 82 | 1012.1 |
| 20260906011004 | 73 | 318 | 0.0 | 2.0 | 0.00 | 0.00 | 0.00 | 81 | 1012.1 |
| 20260906010503 | 73 | 323 | 0.0 | 2.0 | 0.00 | 0.00 | 0.00 | 81 | 1012.0 |
| 20260906010003 | 74 | 337 | 0.0 | 2.0 | 0.00 | 0.00 | 0.00 | 81 | 1012.1 |
| 20260906005004 | 74 | 1 | 0.0 | 2.0 | 0.00 | 0.00 | 0.00 | 79 | 1012.1 |
| 20260906004503 | 74 | 128 | 0.0 | 2.0 | 0.00 | 0.00 | 0.00 | 79 | 1012.1 |
| 20260906004003 | 74 | 118 | 0.0 | 2.0 | 0.00 | 0.00 | 0.00 | 78 | 1012.1 |
| 20260906003504 | 74 | 90 | 0.0 | 2.0 | 0.00 | 0.00 | 0.00 | 77 | 1012.1 |
| 20260906002503 | 75 | 25 | 0.0 | 2.0 | 0.00 | 0.00 | 0.00 | 76 | 1012.0 |
| 20260906002003 | 75 | 9 | 0.0 | 2.0 | 0.00 | 0.00 | 0.00 | 75 | 1011.9 |
| 20260906001503 | 75 | 55 | 0.0 | 2.0 | 0.00 | 0.00 | 0.00 | 74 | 1011.9 |
| 20260906000503 | 76 | 27 | 0.0 | 2.0 | 0.00 | 0.00 | 0.00 | 72 | 1011.8 |
| 20260906000003 | 76 | 80 | 1.0 | 2.0 | 0.00 | 0.00 | 0.00 | 72 | 1011.7 |
| 20260905235503 | 76 | 75 | 1.0 | 2.0 | 0.00 | 0.00 | 0.00 | 72 | 1011.6 |
| 20260905235003 | 76 | 64 | 1.0 | 3.0 | 0.00 | 0.00 | 0.00 | 71 | 1011.7 |
| 20260905234003 | 77 | 87 | 1.0 | 2.0 | 0.00 | 0.00 | 0.00 | 71 | 1011.5 |
| 20260905233503 | 77 | 85 | 1.0 | 3.0 | 0.00 | 0.00 | 0.00 | 71 | 1011.6 |
| 20260905233004 | 77 | 85 | 1.0 | 3.0 | 0.00 | 0.00 | 0.00 | 70 | 1011.5 |
| 20260905232503 | 77 | 54 | 1.0 | 3.0 | 0.00 | 0.00 | 0.00 | 70 | 1011.5 |
| 20260905232003 | 77 | 342 | 1.0 | 3.0 | 0.00 | 0.00 | 0.00 | 71 | 1011.6 |
| 20260905231503 | 78 | 346 | 1.0 | 3.0 | 0.00 | 0.00 | 0.00 | 70 | 1011.6 |
| 20260905230503 | 78 | 29 | 2.0 | 5.0 | 0.00 | 0.00 | 0.00 | 68 | 1011.5 |
| 20260905225503 | 78 | 15 | 2.0 | 4.0 | 0.00 | 0.00 | 0.00 | 67 | 1011.5 |
| 20260905225003 | 79 | 12 | 1.0 | 4.0 | 0.00 | 0.00 | 0.00 | 68 | 1011.4 |
| 20260905224503 | 79 | 349 | 1.0 | 3.0 | 0.00 | 0.00 | 0.00 | 68 | 1011.4 |
| 20260905224003 | 79 | 346 | 1.0 | 3.0 | 0.00 | 0.00 | 0.00 | 68 | 1011.3 |
| 20260905223503 | 79 | 354 | 1.0 | 4.0 | 0.00 | 0.00 | 0.00 | 68 | 1011.3 |
| 20260905223003 | 79 | 3 | 2.0 | 6.0 | 0.00 | 0.00 | 0.00 | 69 | 1011.2 |
| 20260905222503 | 79 | 354 | 2.0 | 6.0 | 0.00 | 0.00 | 0.00 | 66 | 1011.2 |
| 20260905221503 | 79 | 359 | 2.0 | 5.0 | 0.00 | 0.00 | 0.00 | 67 | 1011.3 |
| 20260905221003 | 79 | 34 | 1.0 | 5.0 | 0.00 | 0.00 | 0.00 | 67 | 1011.3 |
| 20260905220503 | 79 | 35 | 2.0 | 6.0 | 0.00 | 0.00 | 0.00 | 65 | 1011.2 |
| 20260905220004 | 80 | 35 | 3.0 | 7.0 | 0.00 | 0.00 | 0.00 | 66 | 1011.3 |
| 20260905215503 | 80 | 57 | 3.0 | 7.0 | 0.00 | 0.00 | 0.00 | 66 | 1011.3 |
| 20260905215003 | 80 | 51 | 2.0 | 7.0 | 0.00 | 0.00 | 0.00 | 66 | 1011.1 |
| 20260905214503 | 80 | 56 | 3.0 | 7.0 | 0.00 | 0.00 | 0.00 | 65 | 1011.1 |
| 20260905214003 | 80 | 48 | 2.0 | 6.0 | 0.00 | 0.00 | 0.00 | 65 | 1011.0 |
| 20260905213503 | 80 | 357 | 2.0 | 9.0 | 0.00 | 0.00 | 0.00 | 66 | 1011.0 |
| 20260905213003 | 80 | 357 | 2.0 | 9.0 | 0.00 | 0.00 | 0.00 | 65 | 1010.9 |
| 20260905212503 | 80 | 357 | 2.0 | 7.0 | 0.00 | 0.00 | 0.00 | 66 | 1010.7 |
| 20260905212004 | 80 | 352 | 3.0 | 9.0 | 0.00 | 0.00 | 0.00 | 65 | 1010.7 |
| 20260905211503 | 80 | 357 | 4.0 | 10.0 | 0.00 | 0.00 | 0.00 | 64 | 1010.7 |
| 20260905210503 | 80 | 29 | 3.0 | 9.0 | 0.00 | 0.00 | 0.00 | 63 | 1010.6 |
| 20260905210004 | 80 | 45 | 4.0 | 9.0 | 0.00 | 0.00 | 0.00 | 62 | 1010.6 |
| 20260905205503 | 80 | 43 | 4.0 | 9.0 | 0.00 | 0.00 | 0.00 | 62 | 1010.6 |
| 20260905204503 | 81 | 11 | 5.0 | 12.0 | 0.00 | 0.00 | 0.00 | 62 | 1010.4 |
| 20260905204004 | 81 | 14 | 5.0 | 12.0 | 0.00 | 0.00 | 0.00 | 60 | 1010.4 |
| 20260905203503 | 81 | 15 | 6.0 | 16.0 | 0.00 | 0.00 | 0.00 | 60 | 1010.3 |
| 20260905202503 | 81 | 40 | 4.0 | 9.0 | 0.00 | 0.00 | 0.00 | 62 | 1010.3 |
| 20260905202003 | 81 | 29 | 5.0 | 11.0 | 0.00 | 0.00 | 0.00 | 60 | 1010.3 |
| 20260905201503 | 81 | 13 | 5.0 | 13.0 | 0.00 | 0.00 | 0.00 | 60 | 1010.3 |
| 20260905201003 | 81 | 37 | 4.0 | 13.0 | 0.00 | 0.00 | 0.00 | 61 | 1010.4 |
| 20260905200003 | 81 | 36 | 4.0 | 12.0 | 0.00 | 0.00 | 0.00 | 61 | 1010.3 |
| 20260905195503 | 81 | 20 | 4.0 | 10.0 | 0.00 | 0.00 | 0.00 | 60 | 1010.5 |
| 20260905195004 | 81 | 356 | 5.0 | 12.0 | 0.00 | 0.00 | 0.00 | 61 | 1010.6 |
| 20260905194503 | 81 | 347 | 5.0 | 12.0 | 0.00 | 0.00 | 0.00 | 63 | 1010.6 |
| 20260905194003 | 81 | 345 | 5.0 | 11.0 | 0.00 | 0.00 | 0.00 | 61 | 1010.6 |
| 20260905193003 | 81 | 3 | 4.0 | 11.0 | 0.00 | 0.00 | 0.00 | 61 | 1011.0 |
| 20260905192504 | 81 | 1 | 5.0 | 10.0 | 0.00 | 0.00 | 0.00 | 64 | 1011.1 |
| 20260905191503 | 81 | 3 | 4.0 | 10.0 | 0.00 | 0.00 | 0.00 | 63 | 1011.2 |
| 20260905191004 | 81 | 359 | 3.0 | 10.0 | 0.00 | 0.00 | 0.00 | 67 | 1011.3 |
| 20260905190503 | 81 | 5 | 4.0 | 10.0 | 0.00 | 0.00 | 0.00 | 65 | 1011.5 |
| 20260905190003 | 81 | 351 | 2.0 | 7.0 | 0.00 | 0.00 | 0.00 | 66 | 1011.6 |
| 20260905185503 | 81 | 351 | 3.0 | 11.0 | 0.00 | 0.00 | 0.00 | 68 | 1011.5 |
| 20260905185003 | 81 | 351 | 4.0 | 11.0 | 0.00 | 0.00 | 0.00 | 66 | 1011.7 |
| 20260905184503 | 81 | 23 | 3.0 | 8.0 | 0.00 | 0.00 | 0.00 | 67 | 1011.6 |
| 20260905183503 | 82 | 12 | 2.0 | 7.0 | 0.00 | 0.00 | 0.00 | 67 | 1011.7 |
| 20260905183003 | 82 | 356 | 2.0 | 7.0 | 0.00 | 0.00 | 0.00 | 65 | 1011.8 |
| 20260905182504 | 82 | 33 | 2.0 | 7.0 | 0.00 | 0.00 | 0.00 | 64 | 1011.9 |
| 20260905182003 | 82 | 25 | 3.0 | 10.0 | 0.00 | 0.00 | 0.00 | 63 | 1011.9 |
| 20260905181503 | 82 | 7 | 3.0 | 10.0 | 0.00 | 0.00 | 0.00 | 64 | 1012.0 |
| 20260905181003 | 82 | 358 | 3.0 | 9.0 | 0.00 | 0.00 | 0.00 | 65 | 1012.0 |
| 20260905180503 | 82 | 348 | 4.0 | 11.0 | 0.00 | 0.00 | 0.00 | 64 | 1012.0 |
| 20260905180003 | 82 | 355 | 4.0 | 11.0 | 0.00 | 0.00 | 0.00 | 63 | 1012.0 |
| 20260905175503 | 82 | 18 | 4.0 | 10.0 | 0.00 | 0.00 | 0.00 | 62 | 1011.9 |
| 20260905175003 | 82 | 17 | 4.0 | 12.0 | 0.00 | 0.00 | 0.00 | 62 | 1011.9 |
| 20260905174504 | 82 | 357 | 5.0 | 12.0 | 0.00 | 0.00 | 0.00 | 62 | 1011.9 |
| 20260905174003 | 82 | 7 | 4.0 | 11.0 | 0.00 | 0.00 | 0.00 | 62 | 1011.9 |
| 20260905173503 | 82 | 20 | 4.0 | 11.0 | 0.00 | 0.00 | 0.00 | 63 | 1011.9 |
| 20260905173004 | 82 | 36 | 3.0 | 8.0 | 0.00 | 0.00 | 0.00 | 63 | 1011.9 |
| 20260905172503 | 82 | 49 | 3.0 | 10.0 | 0.00 | 0.00 | 0.00 | 63 | 1011.9 |
| 20260905172003 | 82 | 32 | 4.0 | 10.0 | 0.00 | 0.00 | 0.00 | 63 | 1011.9 |
| 20260905171003 | 82 | 58 | 4.0 | 9.0 | 0.00 | 0.00 | 0.00 | 63 | 1011.9 |
| 20260905170503 | 82 | 27 | 5.0 | 12.0 | 0.00 | 0.00 | 0.00 | 63 | 1012.0 |
| 20260905170003 | 82 | 10 | 5.0 | 12.0 | 0.00 | 0.00 | 0.00 | 64 | 1012.1 |
| 20260905165004 | 82 | 17 | 4.0 | 9.0 | 0.00 | 0.00 | 0.00 | 65 | 1012.2 |
| 20260905164004 | 82 | 43 | 3.0 | 9.0 | 0.00 | 0.00 | 0.00 | 64 | 1012.2 |
| 20260905163503 | 82 | 20 | 4.0 | 10.0 | 0.00 | 0.00 | 0.00 | 63 | 1012.2 |
| 20260905163003 | 82 | 10 | 4.0 | 11.0 | 0.00 | 0.00 | 0.00 | 64 | 1012.2 |
| 20260905162503 | 82 | 8 | 4.0 | 13.0 | 0.00 | 0.00 | 0.00 | 64 | 1012.2 |
| 20260905161503 | 82 | 14 | 3.0 | 7.0 | 0.00 | 0.00 | 0.00 | 65 | 1012.2 |
| 20260905161003 | 82 | 14 | 3.0 | 9.0 | 0.00 | 0.00 | 0.00 | 66 | 1012.3 |
| 20260905160503 | 82 | 23 | 4.0 | 9.0 | 0.00 | 0.00 | 0.00 | 66 | 1012.2 |
| 20260905160003 | 82 | 33 | 4.0 | 8.0 | 0.00 | 0.00 | 0.00 | 66 | 1012.3 |
| 20260905155503 | 82 | 43 | 3.0 | 8.0 | 0.00 | 0.00 | 0.00 | 65 | 1012.3 |
| 20260905155004 | 82 | 74 | 3.0 | 7.0 | 0.00 | 0.00 | 0.00 | 64 | 1012.3 |
| 20260905154503 | 82 | 84 | 3.0 | 8.0 | 0.00 | 0.00 | 0.00 | 66 | 1012.4 |
| 20260905154003 | 82 | 75 | 3.0 | 8.0 | 0.00 | 0.00 | 0.00 | 62 | 1012.4 |
| 20260905153503 | 82 | 23 | 3.0 | 10.0 | 0.00 | 0.00 | 0.00 | 66 | 1012.5 |
| 20260905153005 | 81 | 45 | 3.0 | 10.0 | 0.00 | 0.00 | 0.00 | 64 | 1012.4 |
| 20260905152503 | 81 | 45 | 3.0 | 7.0 | 0.00 | 0.00 | 0.00 | 66 | 1012.3 |
| 20260905152004 | 81 | 357 | 4.0 | 8.0 | 0.00 | 0.00 | 0.00 | 68 | 1012.5 |
| 20260905151503 | 81 | 14 | 4.0 | 8.0 | 0.00 | 0.00 | 0.00 | 69 | 1012.6 |
| 20260905151003 | 80 | 46 | 4.0 | 7.0 | 0.00 | 0.00 | 0.00 | 67 | 1012.6 |
| 20260905150503 | 80 | 54 | 3.0 | 7.0 | 0.00 | 0.00 | 0.00 | 67 | 1012.6 |
| 20260905150003 | 80 | 62 | 3.0 | 10.0 | 0.00 | 0.00 | 0.00 | 69 | 1012.5 |
| 20260905145504 | 80 | 68 | 4.0 | 10.0 | 0.00 | 0.00 | 0.00 | 68 | 1012.6 |
| 20260905145003 | 80 | 66 | 3.0 | 7.0 | 0.00 | 0.00 | 0.00 | 68 | 1012.5 |
| 20260905144503 | 80 | 50 | 3.0 | 7.0 | 0.00 | 0.00 | 0.00 | 67 | 1012.5 |
| 20260905144004 | 79 | 54 | 3.0 | 9.0 | 0.00 | 0.00 | 0.00 | 68 | 1012.5 |
| 20260905143503 | 80 | 58 | 4.0 | 9.0 | 0.00 | 0.00 | 0.00 | 71 | 1012.4 |
| 20260905143004 | 80 | 70 | 4.0 | 10.0 | 0.00 | 0.00 | 0.00 | 67 | 1012.3 |
| 20260905142503 | 80 | 66 | 3.0 | 10.0 | 0.00 | 0.00 | 0.00 | 69 | 1012.2 |
| 20260905142004 | 79 | 67 | 3.0 | 9.0 | 0.00 | 0.00 | 0.00 | 72 | 1012.2 |
| 20260905141503 | 79 | 86 | 4.0 | 9.0 | 0.00 | 0.00 | 0.00 | 71 | 1012.2 |
| 20260905141004 | 79 | 81 | 3.0 | 7.0 | 0.00 | 0.00 | 0.00 | 69 | 1012.1 |
| 20260905140504 | 79 | 64 | 3.0 | 7.0 | 0.00 | 0.00 | 0.00 | 70 | 1012.2 |
| 20260905140004 | 79 | 64 | 4.0 | 12.0 | 0.00 | 0.00 | 0.00 | 70 | 1012.2 |
| 20260905135503 | 79 | 59 | 4.0 | 12.0 | 0.00 | 0.00 | 0.00 | 68 | 1012.1 |
| 20260905135003 | 79 | 61 | 4.0 | 8.0 | 0.00 | 0.00 | 0.00 | 72 | 1012.1 |
| 20260905134503 | 79 | 78 | 4.0 | 9.0 | 0.00 | 0.00 | 0.00 | 74 | 1012.1 |
| 20260905134003 | 79 | 45 | 4.0 | 12.0 | 0.00 | 0.00 | 0.00 | 77 | 1012.1 |
| 20260905133503 | 78 | 16 | 5.0 | 12.0 | 0.00 | 0.00 | 0.00 | 79 | 1012.0 |
| 20260905133004 | 78 | 38 | 4.0 | 12.0 | 0.00 | 0.00 | 0.00 | 80 | 1011.9 |
| 20260905132503 | 77 | 75 | 3.0 | 10.0 | 0.00 | 0.00 | 0.00 | 83 | 1011.8 |
| 20260905132003 | 77 | 68 | 4.0 | 13.0 | 0.00 | 0.00 | 0.00 | 83 | 1011.7 |
| 20260905131503 | 77 | 56 | 4.0 | 13.0 | 0.00 | 0.00 | 0.00 | 85 | 1011.6 |
| 20260905131003 | 76 | 68 | 5.0 | 10.0 | 0.00 | 0.00 | 0.00 | 86 | 1011.5 |
| 20260905130504 | 76 | 65 | 4.0 | 10.0 | 0.00 | 0.00 | 0.00 | 86 | 1011.6 |
| 20260905125003 | 76 | 79 | 3.0 | 10.0 | 0.00 | 0.00 | 0.00 | 89 | 1011.6 |
| 20260905124503 | 75 | 78 | 4.0 | 10.0 | 0.00 | 0.00 | 0.00 | 91 | 1011.7 |
| 20260905124004 | 75 | 59 | 3.0 | 10.0 | 0.00 | 0.00 | 0.00 | 92 | 1011.7 |
| 20260905123503 | 75 | 57 | 3.0 | 6.0 | 0.00 | 0.00 | 0.00 | 93 | 1011.6 |
| 20260905123003 | 75 | 51 | 3.0 | 7.0 | 0.00 | 0.00 | 0.00 | 93 | 1011.7 |
| 20260905122504 | 74 | 31 | 3.0 | 8.0 | 0.00 | 0.00 | 0.00 | 94 | 1011.6 |
| 20260905122003 | 74 | 23 | 3.0 | 8.0 | 0.00 | 0.00 | 0.00 | 94 | 1011.6 |
| 20260905121004 | 74 | 12 | 4.0 | 8.0 | 0.00 | 0.00 | 0.00 | 94 | 1011.6 |
| 20260905120503 | 74 | 14 | 4.0 | 8.0 | 0.00 | 0.00 | 0.00 | 94 | 1011.7 |
| 20260905120004 | 74 | 15 | 4.0 | 8.0 | 0.00 | 0.00 | 0.00 | 95 | 1011.6 |
| 20260905115505 | 74 | 22 | 3.0 | 8.0 | 0.00 | 0.00 | 0.00 | 95 | 1011.5 |
| 20260905115003 | 74 | 21 | 2.0 | 6.0 | 0.00 | 0.00 | 0.00 | 95 | 1011.3 |
| 20260905114004 | 74 | 10 | 2.0 | 7.0 | 0.00 | 0.00 | 0.00 | 96 | 1011.3 |
| 20260905113503 | 74 | 19 | 2.0 | 8.0 | 0.00 | 0.00 | 0.00 | 96 | 1011.3 |
| 20260905113004 | 73 | 11 | 3.0 | 8.0 | 0.00 | 0.00 | 0.00 | 96 | 1011.3 |
| 20260905112004 | 73 | 3 | 2.0 | 5.0 | 0.00 | 0.00 | 0.00 | 96 | 1011.2 |
| 20260905111503 | 73 | 8 | 2.0 | 5.0 | 0.00 | 0.00 | 0.00 | 96 | 1011.1 |
| 20260905111003 | 73 | 9 | 2.0 | 6.0 | 0.00 | 0.00 | 0.00 | 96 | 1011.0 |
| 20260905110504 | 73 | 9 | 2.0 | 6.0 | 0.00 | 0.00 | 0.00 | 96 | 1011.0 |
| 20260905105503 | 73 | 11 | 1.0 | 4.0 | 0.00 | 0.01 | 0.00 | 96 | 1011.1 |
| 20260905105003 | 73 | 352 | 1.0 | 3.0 | 0.00 | 0.01 | 0.00 | 96 | 1011.0 |
| 20260905104504 | 73 | 343 | 1.0 | 3.0 | 0.00 | 0.01 | 0.00 | 96 | 1011.0 |
| 20260905104003 | 73 | 341 | 1.0 | 3.0 | 0.00 | 0.01 | 0.00 | 95 | 1010.8 |
| 20260905103503 | 73 | 317 | 1.0 | 4.0 | 0.00 | 0.01 | 0.00 | 95 | 1010.7 |
| 20260905103003 | 73 | 309 | 1.0 | 4.0 | 0.00 | 0.01 | 0.00 | 95 | 1010.6 |
| 20260905102503 | 73 | 329 | 1.0 | 3.0 | 0.00 | 0.01 | 0.00 | 95 | 1010.5 |
| 20260905102004 | 73 | 333 | 1.0 | 3.0 | 0.00 | 0.01 | 0.00 | 95 | 1010.5 |
| 20260905101503 | 73 | 315 | 1.0 | 3.0 | 0.00 | 0.01 | 0.00 | 95 | 1010.3 |
| 20260905101003 | 73 | 312 | 1.0 | 3.0 | 0.00 | 0.01 | 0.00 | 95 | 1010.2 |
| 20260905100004 | 73 | 312 | 1.0 | 3.0 | 0.00 | 0.01 | 0.00 | 95 | 1010.2 |
| 20260905095503 | 73 | 310 | 1.0 | 3.0 | 0.00 | 0.01 | 0.00 | 95 | 1010.1 |
| 20260905095004 | 73 | 313 | 1.0 | 2.0 | 0.00 | 0.01 | 0.00 | 95 | 1010.1 |
| 20260905094503 | 73 | 319 | 1.0 | 2.0 | 0.00 | 0.01 | 0.00 | 95 | 1010.1 |
| 20260905094003 | 73 | 319 | 1.0 | 2.0 | 0.00 | 0.01 | 0.00 | 95 | 1010.0 |
| 20260905093503 | 73 | 314 | 1.0 | 2.0 | 0.00 | 0.01 | 0.00 | 95 | 1010.2 |
| 20260905093003 | 73 | 310 | 0.0 | 2.0 | 0.00 | 0.01 | 0.00 | 94 | 1010.3 |
| 20260905092503 | 73 | 327 | 0.0 | 2.0 | 0.00 | 0.01 | 0.00 | 94 | 1010.2 |
| 20260905092003 | 73 | 332 | 0.0 | 2.0 | 0.00 | 0.01 | 0.00 | 94 | 1010.4 |
| 20260905091503 | 73 | 328 | 0.0 | 2.0 | 0.00 | 0.01 | 0.00 | 94 | 1010.5 |
| 20260905091003 | 74 | 318 | 0.0 | 3.0 | 0.00 | 0.01 | 0.00 | 94 | 1010.4 |
| 20260905090503 | 74 | 313 | 1.0 | 3.0 | 0.00 | 0.01 | 0.00 | 94 | 1010.5 |
| 20260905090004 | 74 | 311 | 1.0 | 2.0 | 0.00 | 0.01 | 0.00 | 94 | 1010.4 |
| 20260905085503 | 74 | 310 | 1.0 | 2.0 | 0.00 | 0.01 | 0.00 | 94 | 1010.3 |
| 20260905085003 | 74 | 36 | 0.0 | 2.0 | 0.00 | 0.01 | 0.00 | 94 | 1010.2 |
| 20260905084003 | 74 | 12 | 1.0 | 3.0 | 0.00 | 0.01 | 0.00 | 94 | 1010.3 |
| 20260905083503 | 74 | 322 | 1.0 | 4.0 | 0.00 | 0.01 | 0.00 | 94 | 1010.2 |
| 20260905082003 | 74 | 313 | 2.0 | 5.0 | 0.00 | 0.01 | 0.00 | 94 | 1010.2 |
| 20260905080504 | 74 | 321 | 1.0 | 3.0 | 0.00 | 0.01 | 0.00 | 93 | 1010.4 |
| 20260905080003 | 74 | 331 | 0.0 | 2.0 | 0.00 | 0.01 | 0.00 | 93 | 1010.4 |
| 20260905075503 | 74 | 345 | 0.0 | 2.0 | 0.00 | 0.01 | 0.00 | 93 | 1010.4 |
| 20260905074503 | 74 | 356 | 0.0 | 2.0 | 0.00 | 0.01 | 0.00 | 93 | 1010.5 |
| 20260905074004 | 75 | 5 | 0.0 | 2.0 | 0.00 | 0.01 | 0.00 | 93 | 1010.5 |
| 20260905073003 | 75 | 2 | 0.0 | 3.0 | 0.00 | 0.01 | 0.00 | 92 | 1010.6 |
| 20260905072504 | 75 | 323 | 1.0 | 4.0 | 0.00 | 0.01 | 0.00 | 92 | 1010.4 |
| 20260905071504 | 75 | 315 | 2.0 | 6.0 | 0.00 | 0.01 | 0.00 | 92 | 1010.6 |
| 20260905071004 | 75 | 321 | 1.0 | 4.0 | 0.00 | 0.01 | 0.00 | 92 | 1010.7 |
| 20260905070503 | 75 | 322 | 1.0 | 4.0 | 0.00 | 0.01 | 0.00 | 92 | 1010.6 |
| 20260905070003 | 75 | 314 | 2.0 | 5.0 | 0.00 | 0.01 | 0.00 | 92 | 1010.7 |
| 20260905065004 | 75 | 313 | 2.0 | 6.0 | 0.00 | 0.02 | 0.00 | 92 | 1010.6 |
| 20260905064503 | 75 | 316 | 2.0 | 6.0 | 0.00 | 0.02 | 0.00 | 92 | 1010.6 |
| 20260905064004 | 76 | 314 | 3.0 | 8.0 | 0.00 | 0.03 | 0.00 | 91 | 1010.7 |
| 20260905063503 | 76 | 311 | 3.0 | 8.0 | 0.00 | 0.03 | 0.00 | 91 | 1010.7 |
| 20260905063004 | 76 | 310 | 4.0 | 8.0 | 0.00 | 0.04 | 0.00 | 91 | 1010.8 |
| 20260905062503 | 76 | 308 | 5.0 | 8.0 | 0.00 | 0.05 | 0.00 | 91 | 1010.9 |